Regional Weather Roundup
Issued by NWS Charleston, SC

Current Version | Previous Version | Text Only | Print | Product List | Glossary Off
Versions: 1 2 3 4 5 6 7 8 9 10 11 12 13 14 15 16 17 18 19 20 21 22 23 24 25 26 27 28 29 30 31 32 33 34 35 36 37 38 39 40 41 42 43 44 45 46 47 48 49 50

000
ASUS42 KCHS 271411
RWRCHS

REGIONAL WEATHER ROUNDUP
NATIONAL WEATHER SERVICE CHARLESTON SC
1000 AM EDT FRI MAR 27 2015

NOTE: "FAIR" INDICATES FEW OR NO CLOUDS BELOW 12,000 FEET WITH NO
SIGNIFICANT WEATHER AND/OR OBSTRUCTIONS TO VISIBILITY.

NOT ALL STATIONS ARE QUALITY CONTROLLED BY THE NATIONAL
WEATHER SERVICE. USE DATA WITH CAUTION...ESPECIALLY
DEWPOINT OBSERVATIONS.

SCZ027-030-031-034>040-042>050-271500-
...SOUTHEAST SOUTH CAROLINA...

CITY           SKY/WX    TMP DP  RH WIND       PRES   REMARKS
N CHARLESTON   PTSUNNY   68  61  77 SW15      29.73S
WATERFRONT PRK NOT AVBL
MOUNT PLEASANT CLOUDY    66  63  88 SW10      29.73S
PINOPOLIS        N/A     68  63  83 SW13      29.63R
MONCKS CORNER  CLOUDY    68  61  77 SW8       29.71F
SUMMERVILLE    CLOUDY    68  63  83 SW6       29.72F
BEAUFORT MCAS  PTSUNNY   66  61  84 SW16      29.74F
BEAUFORT ARPT  PTSUNNY   68  63  83 SW12G17   29.74F
HILTON HEAD IS PTSUNNY   66  63  88 SW10      29.76S
WALTERBORO     PTSUNNY   66  61  82 SW9G16    29.72F
ALLENDALE      CLOUDY    66  61  82 VRB6      29.71S

...SOUTHERN MIDLANDS AND PEE DEE...

CITY           SKY/WX    TMP DP  RH WIND       PRES   REMARKS
GEORGETOWN     NOT AVBL
KINGSTREE      NOT AVBL
ORANGEBURG     CLOUDY    66  59  78 SW12      29.70S
BARNWELL       CLOUDY    68  63  83 SW8       29.70F
AIKEN          CLOUDY    63  59  88 W6        29.72F
MANNING        CLOUDY    64  59  82 SW7       29.70S
COLUMBIA       HVY RAIN  64  63  96 W9        29.69R VSB 1
SUMTER         PTSUNNY   67  60  79 SW12      29.66F
FLORENCE       CLOUDY    67  59  75 SW12      29.67R
MYRTLE BEACH   PTSUNNY   68  61  77 W12       29.71S
N MYRTLE BEACH PTSUNNY   68  61  78 W12       29.68S

$$

GAZ063-065-086>088-099>101-113>116-118-119-134>141-150-271500-
...SOUTHEAST GEORGIA...

CITY           SKY/WX    TMP DP  RH WIND       PRES   REMARKS
SAVANNAH ARPT  CLOUDY    68  60  75 SW10      29.76S
HUNTER AAF     PTSUNNY   70  64  83 SW16      29.74S
FORT STEWART   PTSUNNY   67  61  82 SW8       29.74F
STATESBORO     CLOUDY    66  66 100 SW10      29.74R
SYLVANIA       CLOUDY    65  62  90 W8        29.73S
CLAXTON        CLOUDY    66  63  88 SW3       29.75R

...CSRA...CENTRAL AND FAR SOUTHEAST GEORGIA...

CITY           SKY/WX    TMP DP  RH WIND       PRES   REMARKS
THOMSON        CLOUDY    63  62  95 W9        29.76R
AUGUSTA-BUSH   CLOUDY    67  60  78 SW8       29.69S
AUGUSTA-DANIEL MOSUNNY   65  59  81 VRB5      29.70F
SWAINSBORO     CLOUDY    68  59  73 W10       29.73S
VIDALIA        CLOUDY    64  63  94 SW9       29.75R
EASTMAN        CLOUDY    65  62  89 NW9       29.77R
HAZLEHURST     CLOUDY    66  64  94 SW6       29.75S
ALMA           CLOUDY    66  62  87 SW9       29.77S
WAYCROSS       CLOUDY    68  67  97 SW8       29.78F FOG
JESUP          CLOUDY    70  64  83 SW7       29.78F
BAXLEY         CLOUDY    68  63  83 SW6       29.76S
BRUNSWICK      CLOUDY    68  63  83 SW13      29.81R
SAINT SIMONS   PTSUNNY   68  63  84 SW12      29.80S

$$

SCZ027-028-034-036>038-045-046-048>050-GAZ119-141-271500-
...LAKE AND SUPPLEMENTAL COASTAL OBSERVATIONS...

STATION/POSITION TIME  TEMP    WIND        PRES    WAVE   SWELL
                       AIR SEA DIR/SP/G            HT/PER HT/PER/DIR
                 (UTC) (F)     (DEG/KT/KT) (MB)    (FT/S) (FT/S/D)
UPR LAKE MARION  NOT AVBL
WINYAH BAY       NOT AVBL
LAKE MURRAY      1300   62     230/  6/  9 1004.7S
ACE BASIN NERRS  NOT AVBL
FORT PULASKI     1300   64 62  220/ 12/ 18 1008.4R
SAPELO ISLAND    1300   66     230/ 12     1009.0R

$$

ANZ835-935-AMZ111-154-330-350-352-354-370-450-454-472-271500-
...C-MAN AND BUOY OBSERVATIONS...

STATION/POSITION TIME  TEMP    WIND        PRES    WAVE   SWELL
                       AIR SEA DIR/SP/G            HT/PER HT/PER/DIR
                 (UTC) (F)     (DEG/KT/KT) (MB)    (FT/S) (FT/S/D)
BUOY 41004       1350   67 70  250/ 17/ 21 1006.7R   6/ 6   3/ 8
BUOY 41008       1350   62 60  220/  6/  6 1008.7F   3/ 8   2/ 90/ 8
FOLLY BEACH CMAN 1400   62     220/  9/ 11 1006.9S
CAPERS NEARSHORE 1300   62     240/  8/ 10   N/A
FRIPP NEARSHORE  1300   62     230/ 12/ 14 1007.5R


STATION/POSITION TIME  TEMP    WIND        PRES    WAVE   SWELL
                       AIR SEA DIR/SP/G            HT/PER HT/PER/DIR
                 (UTC) (F)     (DEG/KT/KT) (MB)    (FT/S) (FT/S/D)
5E ST. MARYS GA  1321      62                N/A     2/ 8
FRYING PAN BUOY  1350   67 65  230/ 17/ 19 1005.9R   6/ 8   3/120/ 8
BUOY 41025       NOT AVBL
CAPE LOOKOUT NC  1400   60     190/  6/  7 1004.4F
BUOY 41002       1350   71 69  200/ 19/ 23 1008.9F   9/ 8   2/ 40/13
BUOY 41010       1320   76 76  230/ 14/ 17 1011.2S
ST AUGUSTINE FL  1400   68 63  230/ 11/ 15 1011.3F


$$


USA.gov is the U.S. government's official web portal to all federal, state and local government web resources and services.